This is the latest recevied weather packets stored in our database for station/object AD8PA-13. If no packets are shown the sender has not sent any weather packets the latest 10 day(s).
| Time | Temp. | Humidity | Pressure | Rain* | Wind** | Luminosity | Snow |
|---|---|---|---|---|---|---|---|
| 1777339406 | 16.67° C | 68% | 1009.9 hPa | 0 mm | - | - | - |
| 1777338503 | 16.67° C | 67% | 1010.1 hPa | 0 mm | - | - | - |
| 1777337600 | 16.67° C | 66% | 1010.3 hPa | 0 mm | - | - | - |
| 1777336698 | 16.67° C | 64% | 1010.4 hPa | 0 mm | - | - | - |
| 1777335796 | 16.67° C | 64% | 1011.2 hPa | 0 mm | - | - | - |
| 1777334894 | 17.22° C | 60% | 1010.6 hPa | 0 mm | - | - | - |
| 1777333989 | 17.22° C | 59% | 1010.3 hPa | 0 mm | - | - | - |
| 1777333086 | 17.22° C | 58% | 1010.4 hPa | 0 mm | - | - | - |
| 1777332182 | 17.22° C | 57% | 1008.4 hPa | 0 mm | - | - | - |
| 1777331280 | 17.78° C | 58% | 1012.7 hPa | 0 mm | - | - | - |
| 1777330377 | 17.78° C | 56% | 1014.3 hPa | 0 mm | - | - | - |
| 1777329472 | 18.33° C | 56% | 1015.2 hPa | 0 mm | - | - | - |
| 1777328570 | 18.33° C | 55% | 1015.4 hPa | 0 mm | - | - | - |
| 1777327664 | 18.33° C | 55% | 1015.3 hPa | 0 mm | - | - | - |
| 1777326760 | 18.33° C | 54% | 1015.4 hPa | 0 mm | - | - | - |
| 1777325860 | 18.33° C | 55% | 1015.3 hPa | 0 mm | - | - | - |
| 1777324957 | 18.89° C | 57% | 1015.6 hPa | 0 mm | - | - | - |
| 1777324055 | 18.33° C | 59% | 1015.1 hPa | 0 mm | - | - | - |
| 1777323153 | 18.33° C | 58% | 1015.2 hPa | 0 mm | - | - | - |
| 1777322251 | 18.33° C | 58% | 1015.7 hPa | 0 mm | - | - | - |
| 1777321347 | 18.33° C | 60% | 1015.8 hPa | 0 mm | - | - | - |
| 1777320445 | 18.89° C | 58% | 1015.7 hPa | 0 mm | - | - | - |
| 1777319542 | 18.89° C | 58% | 1015.7 hPa | 0 mm | - | - | - |
| 1777318639 | 19.44° C | 58% | 1015.6 hPa | 0 mm | - | - | - |
| 1777317735 | 20° C | 56% | 1015.5 hPa | 0 mm | - | - | - |
* Rain latest hour (hover to see other rain measurements)
** Current wind speed in m/s (hover to see current wind gust speed)